Location: Boulder Knolls Observatory
(33.2250°N, 117.1147°W)
Time: 23:36:21
(UTC-08:00)

OTV 5 (USA 277) - Visible Passes

Search period start: 20 February 2018 00:00
Search period end: 02 March 2018 00:00
Orbit: 404 x 417 km, 43.0° (Epoch: 07 September)

Date Brightness Start Highest point End Pass type
(mag) Time Alt. Az. Time Alt. Az. Time Alt. Az.
20 Feb ? 05:28:32 20° WSW 05:30:37 73° NNW 05:33:53 10° ENE visible
21 Feb ? 04:40:16 48° E 04:40:16 48° E 04:42:50 10° ENE visible
22 Feb ? 05:24:37 23° WNW 05:25:54 31° NNW 05:28:53 10° NE visible
23 Feb ? 04:36:06 27° NNE 04:36:06 27° NNE 04:37:56 10° NE visible
24 Feb ? 05:20:15 16° NW 05:21:21 19° NNW 05:23:48 10° NE visible
25 Feb ? 04:31:35 17° NNE 04:31:35 17° NNE 04:32:51 10° NE visible
26 Feb ? 05:15:37 13° NNW 05:16:55 15° N 05:18:56 10° NE visible
27 Feb ? 04:26:53 14° NNE 04:26:53 14° NNE 04:27:50 10° NNE visible
28 Feb ? 05:10:53 12° NNW 05:12:32 15° N 05:14:35 10° NE visible
01 Mar ? 04:22:09 13° NNE 04:22:09 13° NNE 04:23:13 10° NE visible
